Weather History for Lawrence, MA

Change the Weather History Date:

Wednesday, April 30, 2014

  Actual Average Record
Temperature  
Mean Temperature 42 °F -  
Max Temperature 46 °F 63 °F 85 °F (1942)
Min Temperature 39 °F 41 °F 29 °F (1992)
Degree Days  
Heating Degree Days 22    
Moisture  
Dew Point 36 °F    
Average Humidity 77    
Maximum Humidity 89    
Minimum Humidity 61    
Precipitation  
Precipitation 0.21 in - - ()
Sea Level Pressure  
Sea Level Pressure 30.45 in    
Wind  
Wind Speed 6 mph (East)    
Max Wind Speed 13 mph    
Max Gust Speed 18 mph    
Visibility 9 miles    
Events Rain    
Averages and records for this station are not official NWS values.
T = Trace of Precipitation, MM = Missing Value Source: NWS Daily Summary

Daily Weather History Graph

Daily Weather History Graph

Search for Another Location

Airport:

Trip Planner

Search our weather history database for the weather conditions in past years. The results will help you decide how hot, cold, wet, or windy it might be!

Date:

Astronomy

Apr. 30, 2014 Rise Set
Actual Time 5:40 AM EDT 7:43 PM EDT
Civil Twilight 5:09 AM EDT 8:14 PM EDT
Nautical Twilight 4:31 AM EDT 8:52 PM EDT
Astronomical Twilight 3:50 AM EDT 9:33 PM EDT
Moon 6:38 AM EDT (4/30) 9:20 PM EDT (4/30)
Length of Visible Light 15h 04m
Length of Day
14h 03m
New Moon, 2% of the Moon is Illuminated
Apr 30
New Moon
May 6
First Quarter
May 14
Full
May 21
Last Quarter
May 28
New

Hourly Weather History & Observations

Time (EDT) Temp. Windchill Dew Point Humidity Pressure Visibility Wind Dir Wind Speed Gust Speed Precip Events Conditions
12:21 AM 41.0 °F 38.0 °F 34.0 °F 76% 30.55 in 10.0 mi East 4.6 mph - 0.00 in Rain Light Rain
12:54 AM 41.0 °F - 34.0 °F 76% 30.56 in 10.0 mi Calm Calm - 0.00 in   Overcast
1:33 AM 41.0 °F 39.0 °F 33.1 °F 73% 30.56 in 10.0 mi East 3.5 mph - N/A   Overcast
1:54 AM 41.0 °F 39.0 °F 34.0 °F 76% 30.56 in 10.0 mi ENE 3.5 mph - 0.00 in Rain Light Rain
2:54 AM 39.9 °F 35.8 °F 35.1 °F 83% 30.54 in 10.0 mi NE 5.8 mph - 0.01 in   Overcast
3:54 AM 39.9 °F 37.8 °F 35.1 °F 83% 30.55 in 10.0 mi NE 3.5 mph - N/A   Overcast
4:54 AM 39.9 °F 37.8 °F 35.1 °F 83% 30.56 in 10.0 mi NNE 3.5 mph - 0.00 in   Overcast
5:54 AM 39.9 °F 35.8 °F 36.0 °F 86% 30.56 in 10.0 mi NNE 5.8 mph - N/A   Overcast
6:54 AM 41.0 °F 37.1 °F 35.6 °F 81% 30.55 in 9.0 mi ENE 5.8 mph - N/A Rain Light Rain
7:54 AM 41.0 °F 36.4 °F 37.0 °F 86% 30.54 in 10.0 mi ENE 6.9 mph - 0.00 in Rain Light Rain
8:54 AM 42.1 °F 39.2 °F 36.0 °F 79% 30.56 in 10.0 mi Variable 4.6 mph - 0.01 in Rain Light Rain
9:02 AM 42.1 °F 37.7 °F 36.0 °F 79% 30.55 in 8.0 mi ENE 6.9 mph - 0.00 in Rain Light Rain
9:54 AM 42.1 °F 38.4 °F 37.0 °F 82% 30.53 in 9.0 mi ENE 5.8 mph - 0.02 in Rain Light Rain
9:59 AM 42.1 °F 40.2 °F 36.0 °F 79% 30.54 in 10.0 mi Variable 3.5 mph - 0.00 in Rain Light Rain
10:54 AM 42.8 °F 37.5 °F 35.6 °F 76% 30.52 in 10.0 mi East 9.2 mph - N/A   Overcast
11:54 AM 44.1 °F 38.6 °F 35.1 °F 71% 30.50 in 10.0 mi East 10.4 mph 17.3 mph N/A   Overcast
12:54 PM 46.0 °F 41.9 °F 35.1 °F 66% 30.49 in 10.0 mi East 8.1 mph - N/A   Overcast
1:54 PM 46.0 °F 43.9 °F 33.1 °F 61% 30.48 in 10.0 mi Variable 4.6 mph - N/A   Overcast
2:54 PM 45.0 °F 40.1 °F 34.0 °F 65% 30.44 in 10.0 mi East 9.2 mph - N/A   Overcast
3:06 PM 45.0 °F 40.1 °F 34.0 °F 65% 30.43 in 10.0 mi ESE 9.2 mph 17.3 mph N/A   Overcast
3:18 PM 45.0 °F 39.7 °F 33.1 °F 63% 30.43 in 10.0 mi East 10.4 mph - N/A   Overcast
3:25 PM 45.0 °F 38.9 °F 33.1 °F 63% 30.42 in 10.0 mi East 12.7 mph - N/A   Overcast
3:54 PM 45.0 °F 39.3 °F 33.1 °F 63% 30.42 in 10.0 mi ESE 11.5 mph - N/A   Overcast
4:11 PM 45.0 °F 40.1 °F 34.0 °F 65% 30.41 in 10.0 mi ESE 9.2 mph 18.4 mph N/A   Overcast
4:54 PM 44.6 °F 40.2 °F 33.8 °F 66% 30.40 in 10.0 mi ESE 8.1 mph 18.4 mph N/A   Mostly Cloudy
5:54 PM 44.1 °F 40.8 °F 36.0 °F 73% 30.39 in 10.0 mi Variable 5.8 mph - 0.00 in Rain Light Rain
6:54 PM 42.1 °F 37.1 °F 36.0 °F 79% 30.38 in 5.0 mi ESE 8.1 mph - 0.00 in Rain Light Rain
7:50 PM 41.0 °F 35.8 °F 37.4 °F 87% 30.35 in 9.0 mi ESE 8.1 mph - 0.01 in Rain Light Rain
7:54 PM 41.0 °F 35.8 °F 37.0 °F 86% 30.35 in 9.0 mi ESE 8.1 mph - 0.01 in Rain Light Rain
8:30 PM 41.0 °F 36.4 °F 37.0 °F 86% 30.34 in 7.0 mi East 6.9 mph - 0.01 in Rain Light Rain
8:54 PM 41.0 °F 35.8 °F 37.9 °F 89% 30.34 in 6.0 mi East 8.1 mph - 0.02 in Rain Light Rain
9:54 PM 41.0 °F 35.2 °F 37.4 °F 87% 30.30 in 2.5 mi East 9.2 mph - N/A Rain Heavy Rain
10:10 PM 41.0 °F 36.4 °F 37.9 °F 89% 30.29 in 5.0 mi East 6.9 mph - 0.03 in Rain Light Rain
10:54 PM 42.1 °F 37.1 °F 39.0 °F 89% 30.26 in 2.5 mi East 8.1 mph - 0.06 in Rain Light Rain
11:02 PM 42.1 °F 36.6 °F 39.0 °F 89% 30.25 in 4.0 mi East 9.2 mph - 0.01 in Rain Light Rain
11:54 PM 42.1 °F 37.7 °F 39.0 °F 89% 30.22 in 5.0 mi East 6.9 mph - 0.08 in Rain Rain